Regional Weather Roundup
Issued by NWS

Home | Current Version | Previous Version | Text Only | Print | Product List | Glossary On
Versions: 1 2 3 4 5 6 7 8 9 10 11 12 13 14 15 16 17 18 19 20 21 22 23 24 25 26 27 28 29 30 31 32 33 34 35 36 37 38 39 40 41 42 43 44 45 46 47 48 49 50
000
ASUS44 KOUN 202110
RWROK

WEATHER ROUNDUP FOR OKLAHOMA
NATIONAL WEATHER SERVICE NORMAN OK
400 PM CDT THU JUL 20 2017

NOTE: "FAIR" INDICATES FEW OR NO CLOUDS BELOW 12,000 FEET WITH NO
      SIGNIFICANT WEATHER AND/OR OBSTRUCTIONS TO VISIBILITY.

OKZ001>007-009>012-014-015-017-202200-
NORTHWEST OKLAHOMA AND THE PANHANDLE

CITY           SKY/WX    TMP DP  RH WIND       PRES   REMARKS
GAGE           MOSUNNY  102  57  22 S16G28    30.02F HX 101
GUYMON         SUNNY    101  53  20 S21G28    30.02F HX  99
ENID/WOODRING  PTSUNNY  108  61  21 S12G17    29.96F HX 109
$$

OKZ016-021>023-033>039-044-045-202200-
SOUTHWEST OKLAHOMA

CITY           SKY/WX    TMP DP  RH WIND       PRES   REMARKS
LAWTON/REGL    SUNNY     99  67  35 S10       30.00F HX 103
LAWTON/FT SILL MOSUNNY   99  63  30 S8        30.00F HX 100
FREDERICK      MOSUNNY  101  62  27 VRB3      29.98F HX 102
CLINTON        MOSUNNY  100  54  21 S15       30.04F HX  98
HOBART         MOSUNNY  103  58  22 SW18G25   30.02F HX 102
ALTUS AFB      SUNNY    100  60  26 SE14G20   30.00F HX 100
$$

OKZ018>020-024>031-202200-
CENTRAL OKLAHOMA

CITY           SKY/WX    TMP DP  RH WIND       PRES   REMARKS
OKLAHOMA CITY  MOSUNNY  101  61  26 S8G17     30.01F HX 102
OKC/WILEY POST SUNNY    101  65  30 SW12      30.00F HX 104
OKC/TINKER AFB SUNNY    100  65  32 S8        30.01F HX 103
STILLWATER     MOSUNNY  102  63  27 S8        29.99F HX 104
GUTHRIE        MOSUNNY   99  62  29 SW8       29.99F HX 100
$$

OKZ008-013-054>072-202200-
NORTHEAST OKLAHOMA

CITY           SKY/WX    TMP DP  RH WIND       PRES   REMARKS
TULSA          MOSUNNY   99  68  36 S12       29.98F HX 104
TULSA/JONES    SUNNY    101  64  29 S12       29.99F HX 104
PONCA CITY     SUNNY    102  63  27 VRB6      29.97F HX 104
BARTLESVILLE   MOSUNNY   99  68  36 S7        30.00F HX 104
MUSKOGEE       SUNNY     95  72  47 S12       30.04F HX 103
$$

OKZ032-040>043-046>053-073>077-202200-
SOUTH CENTRAL/SOUTHEAST OKLAHOMA

CITY           SKY/WX    TMP DP  RH WIND       PRES   REMARKS
ARDMORE/DWNTWN SUNNY     99  61  28 SW8       30.01F HX  99
MCALESTER      MOSUNNY   96  74  48 S9        30.04F HX 107
$$




USA.gov is the U.S. government's official web portal to all federal, state and local government web resources and services.